Orbital Elements at Epoch 2459000.5 (2020-May-31.0) TDB
Reference: JPL 16 (heliocentric ecliptic J2000)
Element | Value | Uncertainty (1-sigma) | Units |
e | .1342602089724501 | 5.4873e-08 | |
a | 2.696164652865511 | 2.2177e-08 | au |
q | 2.334177023147654 | 1.5065e-07 | au |
i | 16.03961370947947 | 5.0155e-06 | deg |
node | 99.94039680456852 | 2.3262e-05 | deg |
peri | 301.0927996939311 | 3.1369e-05 | deg |
M | 234.9091991982135 | 2.5306e-05 | deg |
tp | 2459562.376560152334 (2021-Dec-13.87656015) | 0.00011751 | TDB |
period | 1617.029872367332 4.43 | 1.9951e-05 5.462e-08 | d yr |
n | .2226303954873511 | 2.7469e-09 | deg/d |
Q | 3.058152282583367 | 2.5155e-08 | au |
|
| | Orbit Determination Parameters
Additional Information
|